• In Hungary
  • List of Countries
  • For 7 days
  • Water Temperature
  • Satellite Maps
  • Weather Map
  • News
  • Weather Widgets
  • user-avatar
    Login

    Hourly Weather Valencia

    Today, 24 February, Saturday

    Time Temperature Precipitation Wind Pressure Humidity
    00:00 +21°C° 0 mm 2 mps 718 mmHg 86%
    01:00 +20°C° 0 mm 2 mps 718 mmHg 87%
    02:00 +20°C° 0 mm 2 mps 718 mmHg 87%
    03:00 +20°C° 0 mm 2 mps 718 mmHg 88%
    04:00 +20°C° 0 mm 2 mps 718 mmHg 88%
    05:00 +20°C° 0 mm 2 mps 718 mmHg 85%
    06:00 +21°C° 0 mm 2 mps 719 mmHg 83%
    07:00 +23°C° 0 mm 2 mps 719 mmHg 80%
    08:00 +25°C° 0 mm 2 mps 719 mmHg 70%
    09:00 +27°C° 0 mm 2 mps 720 mmHg 60%
    10:00 +29°C° 0 mm 2 mps 720 mmHg 50%
    11:00 +30°C° 0 mm 2 mps 720 mmHg 48%
    12:00 +31°C° 0 mm 2 mps 719 mmHg 45%
    13:00 +33°C° 0 mm 3 mps 718 mmHg 43%
    14:00 +31°C° 0 mm 3 mps 718 mmHg 46%
    15:00 +30°C° 0 mm 3 mps 717 mmHg 50%
    16:00 +29°C° 0 mm 3 mps 717 mmHg 53%
    17:00 +27°C° 0 mm 3 mps 717 mmHg 62%
    18:00 +25°C° 0 mm 3 mps 717 mmHg 71%
    19:00 +23°C° 0 mm 2 mps 717 mmHg 80%
    20:00 +23°C° 0 mm 2 mps 718 mmHg 81%
    21:00 +21°C° 0 mm 2 mps 718 mmHg 83%
    22:00 +21°C° 0 mm 2 mps 719 mmHg 84%
    23:00 +21°C° 0 mm 2 mps 718 mmHg 85%

    Tomorrow, 25 February, Sunday

    Time Temperature Precipitation Wind Pressure Humidity
    00:00 +21°C° 0 mm 2 mps 718 mmHg 85%
    01:00 +20°C° 0 mm 2 mps 718 mmHg 86%
    02:00 +20°C° 0 mm 2 mps 718 mmHg 87%
    03:00 +20°C° 0 mm 2 mps 718 mmHg 87%
    04:00 +20°C° 0 mm 2 mps 718 mmHg 88%
    05:00 +20°C° 0 mm 2 mps 718 mmHg 86%
    06:00 +21°C° 0 mm 2 mps 719 mmHg 84%
    07:00 +23°C° 0 mm 2 mps 719 mmHg 81%
    08:00 +25°C° 0 mm 2 mps 720 mmHg 70%
    09:00 +28°C° 0 mm 2 mps 720 mmHg 59%
    10:00 +31°C° 0 mm 2 mps 721 mmHg 48%
    11:00 +31°C° 0 mm 2 mps 720 mmHg 46%
    12:00 +32°C° 0 mm 2 mps 719 mmHg 44%
    13:00 +32°C° 0 mm 2 mps 718 mmHg 42%
    14:00 +31°C° 0 mm 3 mps 718 mmHg 46%
    15:00 +30°C° 0 mm 3 mps 717 mmHg 50%
    16:00 +29°C° 0 mm 3 mps 717 mmHg 54%
    17:00 +28°C° 0 mm 3 mps 717 mmHg 63%
    18:00 +26°C° 0 mm 3 mps 717 mmHg 72%
    19:00 +24°C° 0 mm 3 mps 718 mmHg 81%
    20:00 +22°C° 0 mm 3 mps 718 mmHg 82%
    21:00 +22°C° 0 mm 3 mps 719 mmHg 84%
    22:00 +23°C° 0 mm 2 mps 719 mmHg 85%
    23:00 +23°C° 0 mm 2 mps 719 mmHg 86%

    Day after tomorrow, 26 February, Monday

    Time Temperature Precipitation Wind Pressure Humidity
    00:00 +21°C° 0 mm 2 mps 719 mmHg 86%
    01:00 +21°C° 0 mm 2 mps 718 mmHg 87%
    02:00 +21°C° 0 mm 2 mps 718 mmHg 87%
    03:00 +21°C° 0 mm 2 mps 718 mmHg 88%
    04:00 +21°C° 0 mm 2 mps 718 mmHg 89%
    05:00 +21°C° 0 mm 2 mps 719 mmHg 86%
    06:00 +23°C° 0 mm 2 mps 719 mmHg 84%
    07:00 +23°C° 0 mm 2 mps 720 mmHg 81%
    08:00 +25°C° 0 mm 2 mps 720 mmHg 72%
    09:00 +28°C° 0 mm 2 mps 720 mmHg 62%
    10:00 +30°C° 0 mm 2 mps 721 mmHg 53%
    11:00 +30°C° 0.1 mm 2 mps 720 mmHg 50%
    12:00 +31°C° 0.1 mm 3 mps 719 mmHg 48%
    13:00 +33°C° 0.1 mm 3 mps 718 mmHg 46%
    14:00 +31°C° 0 mm 3 mps 718 mmHg 48%
    15:00 +30°C° 0 mm 3 mps 717 mmHg 51%
    16:00 +29°C° 0 mm 3 mps 717 mmHg 53%
    17:00 +27°C° 0 mm 3 mps 717 mmHg 62%
    18:00 +25°C° 0 mm 3 mps 717 mmHg 70%
    19:00 +24°C° 0 mm 3 mps 718 mmHg 79%
    20:00 +23°C° 0 mm 2 mps 718 mmHg 80%
    21:00 +23°C° 0 mm 2 mps 718 mmHg 81%
    22:00 +21°C° 0 mm 2 mps 719 mmHg 82%
    23:00 +21°C° 0 mm 2 mps 718 mmHg 83%

    27 February, Tuesday

    Time Temperature Precipitation Wind Pressure Humidity
    00:00 +21°C° 0 mm 2 mps 718 mmHg 84%
    01:00 +21°C° 0 mm 2 mps 718 mmHg 85%
    02:00 +21°C° 0 mm 2 mps 718 mmHg 85%
    03:00 +21°C° 0 mm 2 mps 718 mmHg 86%
    04:00 +21°C° 0 mm 2 mps 718 mmHg 87%
    05:00 +21°C° 0 mm 2 mps 718 mmHg 84%
    06:00 +21°C° 0 mm 2 mps 719 mmHg 81%
    07:00 +23°C° 0 mm 1 mps 719 mmHg 78%
    08:00 +26°C° 0 mm 2 mps 720 mmHg 66%
    09:00 +28°C° 0 mm 2 mps 720 mmHg 53%
    10:00 +31°C° 0 mm 2 mps 720 mmHg 41%
    11:00 +32°C° 0 mm 2 mps 719 mmHg 39%
    12:00 +34°C° 0 mm 2 mps 719 mmHg 37%
    13:00 +34°C° 0 mm 3 mps 718 mmHg 35%
    14:00 +33°C° 0 mm 3 mps 717 mmHg 38%
    15:00 +31°C° 0 mm 3 mps 716 mmHg 42%
    16:00 +30°C° 0 mm 3 mps 716 mmHg 46%
    17:00 +28°C° 0 mm 3 mps 716 mmHg 55%
    18:00 +26°C° 0 mm 3 mps 716 mmHg 65%
    19:00 +24°C° 0 mm 3 mps 717 mmHg 74%
    20:00 +22°C° 0 mm 3 mps 717 mmHg 77%
    21:00 +23°C° 0 mm 2 mps 718 mmHg 79%
    22:00 +21°C° 0 mm 2 mps 718 mmHg 81%
    23:00 +21°C° 0 mm 2 mps 718 mmHg 82%

    28 February, Wednesday

    Time Temperature Precipitation Wind Pressure Humidity
    00:00 +21°C° 0 mm 2 mps 717 mmHg 82%
    01:00 +21°C° 0 mm 2 mps 717 mmHg 82%
    02:00 +21°C° 0 mm 2 mps 717 mmHg 83%
    03:00 +21°C° 0 mm 2 mps 717 mmHg 85%
    04:00 +20°C° 0 mm 2 mps 717 mmHg 86%
    05:00 +21°C° 0 mm 2 mps 717 mmHg 83%
    06:00 +21°C° 0 mm 2 mps 718 mmHg 81%
    07:00 +23°C° 0 mm 2 mps 718 mmHg 78%
    08:00 +26°C° 0 mm 2 mps 719 mmHg 67%
    09:00 +28°C° 0 mm 2 mps 719 mmHg 55%
    10:00 +31°C° 0 mm 2 mps 720 mmHg 44%
    11:00 +32°C° 0 mm 2 mps 719 mmHg 41%
    12:00 +32°C° 0 mm 2 mps 718 mmHg 38%
    13:00 +34°C° 0 mm 3 mps 717 mmHg 35%
    14:00 +33°C° 0 mm 3 mps 717 mmHg 39%
    15:00 +31°C° 0 mm 3 mps 716 mmHg 43%
    16:00 +30°C° 0 mm 3 mps 716 mmHg 47%
    17:00 +28°C° 0 mm 3 mps 716 mmHg 56%
    18:00 +26°C° 0 mm 3 mps 716 mmHg 66%
    19:00 +24°C° 0 mm 2 mps 717 mmHg 75%
    20:00 +23°C° 0 mm 2 mps 717 mmHg 77%
    21:00 +23°C° 0 mm 2 mps 718 mmHg 79%
    22:00 +21°C° 0 mm 2 mps 718 mmHg 81%
    23:00 +21°C° 0 mm 2 mps 718 mmHg 81%

    1 March, Thursday

    Time Temperature Precipitation Wind Pressure Humidity
    00:00 +21°C° 0 mm 2 mps 717 mmHg 81%
    01:00 +21°C° 0 mm 2 mps 717 mmHg 81%
    02:00 +20°C° 0 mm 2 mps 717 mmHg 81%
    03:00 +20°C° 0 mm 2 mps 717 mmHg 81%
    04:00 +20°C° 0 mm 2 mps 717 mmHg 82%
    05:00 +21°C° 0 mm 2 mps 718 mmHg 79%
    06:00 +21°C° 0 mm 2 mps 718 mmHg 77%
    07:00 +23°C° 0 mm 2 mps 719 mmHg 74%
    08:00 +25°C° 0 mm 2 mps 719 mmHg 64%
    09:00 +28°C° 0 mm 2 mps 720 mmHg 53%
    10:00 +31°C° 0 mm 2 mps 720 mmHg 43%
    11:00 +32°C° 0 mm 2 mps 719 mmHg 40%
    12:00 +34°C° 0 mm 2 mps 719 mmHg 38%
    13:00 +34°C° 0 mm 3 mps 718 mmHg 36%
    14:00 +33°C° 0 mm 3 mps 717 mmHg 40%
    15:00 +31°C° 0 mm 3 mps 717 mmHg 44%
    16:00 +30°C° 0 mm 3 mps 716 mmHg 47%
    17:00 +28°C° 0 mm 3 mps 717 mmHg 58%
    18:00 +26°C° 0 mm 3 mps 717 mmHg 68%
    19:00 +24°C° 0 mm 3 mps 717 mmHg 78%
    20:00 +23°C° 0 mm 2 mps 717 mmHg 80%
    21:00 +23°C° 0 mm 2 mps 718 mmHg 82%
    22:00 +23°C° 0 mm 2 mps 718 mmHg 84%
    23:00 +21°C° 0 mm 2 mps 718 mmHg 84%
    Show more